Flag for Spain Weather past 2 weeks in Mahón, Menorca, Spain

Now
82 °F

Partly sunny.


Feels Like: 83 °F
Forecast: 71 / 82 °F
Wind: 16 mph from Northeast

Location: Menorca / Mahon

Current Time: Jul 25, 2014 at 12:11:03 PM

Latest Report: Jul 25, 2014 at 11:00 AM


Visibility: 17 mi

Pressure: 29.88 "Hg

Humidity: 55%

Dew point: 64 °F

Location of MahónLocation

Historic Weather in Mahón — Graph

°F

Mahón temperature yesterday

Maximum temperature yesterday: 88 °F (at 3:00 PM)
Minimum temperature yesterday: 71 °F (at 6:00 AM)
Average temperature yesterday: 79 °F

Past Weeks' High & Low Weather Summary

 TemperatureHumidityPressure
High89 °F (Jul 20, 2:00 PM)95% (Jul 20, 5:00 AM)30.13 "Hg (Jul 20, 5:00 AM)
Low62 °F (Jul 11, 6:00 AM)34% (Jul 20, 2:00 PM)29.81 "Hg (Jul 20, 6:00 AM)
Average76 °F70%30.00 "Hg
* Reported Jul 10 10:00 AM — Jul 25 10:00 AM, Mahón, Weather by CustomWeather, © 2014

Note: Actual official high and low records may vary slightly from our data, if they occured in-between our weather recording intervals... More about our weather records

Advertising

Mahón weather history for previous 24 hours

 ConditionsComfort  
Time TempWeatherWind HumidityBarometerVisibility
10:00 AM
Jul 25
81 °FWarm.13 mph58%29.88 "HgN/A
9:00 AM78 °FWarm.9 mph70%29.88 "HgN/A
8:00 AM76 °FPartly sunny.8 mph73%29.88 "Hg18 mi
7:00 AM72 °FMild.6 mph81%29.87 "HgN/A
6:00 AM73 °FMild.6 mph79%29.85 "HgN/A
5:00 AM73 °FPassing clouds.5 mph76%29.84 "Hg11 mi
4:00 AM72 °FMild.8 mph78%29.83 "HgN/A
3:00 AM74 °FMild.6 mph74%29.85 "HgN/A
2:00 AM74 °FPassing clouds.5 mph73%29.88 "Hg11 mi
1:00 AM74 °FMild.6 mph77%29.89 "HgN/A
12:00 AM75 °FMild.6 mph77%29.89 "HgN/A
11:00 PM
Jul 24
76 °FPassing clouds.6 mph79%29.88 "Hg11 mi
10:00 PM76 °FMild.5 mph77%29.87 "HgN/A
9:00 PM78 °FWarm.6 mph69%29.87 "HgN/A
8:00 PM81 °FScattered clouds.7 mph58%29.86 "Hg12 mi
7:00 PM83 °FWarm.9 mph50%29.86 "HgN/A
6:00 PM85 °FWarm.12 mph52%29.87 "HgN/A
5:00 PM87 °FPassing clouds.12 mph49%29.88 "Hg14 mi
4:00 PM87 °FWarm.12 mph48%29.88 "HgN/A
3:00 PM88 °FPassing clouds.9 mph37%29.88 "Hg16 mi
2:00 PM87 °FSunny.9 mph43%29.89 "Hg16 mi
1:00 PM86 °FWarm.9 mph52%29.89 "HgN/A
12:00 PM85 °FWarm.7 mph48%29.89 "HgN/A
Weather by CustomWeather, © 2014

See weather overviewHow to use our weather pages